[[{"header":{"parameterUnit":"m.s-1","parameterCategory":1,"la1":30.2991,"la2":30.254,"lo1":-89.0895,"lo2":-89.0444,"dy":0.0017,"dx":0.0017,"nx":28,"ny":28,"refTime":"2024-05-26T21:00:00:Z","depth":0,"parameterNumber":2,"parameterNumberName":"U-component_of_WINDS"},"data":[0,0,0,0,0,0,0,0,0,0,0,0,0,0,0,0,0,0,0,0,0,0,0,0,0,0,0,0,0,0,0,0,0,0,0,0,0,0,0,0,0,0,0,0,0,0,0,0,0,0,0,0,0,0,0,0,0,0,0.4228,0.423,0,0.4405,0.4407,0.441,0.4436,0.4435,0.4433,0.4432,0.4615,0.4622,0.4628,0,0,0,0,0,0,0,0,0,0,0,0,0,0.3912,0.3918,0.4227,0.423,0.4232,0.4405,0.4408,0.441,0.4437,0.4435,0.4433,0.4431,0.4613,0.4621,0.4629,0,0,0,0,0,0,0,0,0,0,0,0,0,0.4065,0.392,0.4227,0.4266,0.4271,0.4405,0.4408,0.4411,0.4437,0.4435,0.4432,0.443,0.4611,0.462,0.463,0.4737,0,0,0.4659,0.4663,0,0,0,0,0,0,0,0,0.4057,0.4077,0.4258,0.4264,0.427,0.4396,0.4364,0.452,0.4438,0.4374,0.4431,0.4429,0.4545,0.4559,0.4598,0.4746,0.4754,0.466,0.4666,0.467,0.4672,0,0,0,0,0,0,0,0.4046,0.407,0.4298,0.4261,0.4268,0.4275,0.4294,0.4394,0.4471,0.4379,0.4382,0.4402,0.4547,0.4589,0.4603,0.4756,0.466,0.4668,0.4674,0.4678,0.5002,0.5005,0,0,0,0,0,0,0.4028,0.406,0.4292,0.4303,0.4155,0.4283,0.4304,0.4358,0.447,0.4484,0.4404,0.4403,0.4574,0.4591,0.4609,0.4744,0.467,0.4679,0.4684,0.4999,0.5003,0.5006,0,0,0,0,0,0,0.4021,0.4049,0.4285,0.4183,0.4213,0.4291,0.4351,0.4363,0.4404,0.4488,0.4502,0.4433,0.4572,0.4596,0.4705,0.4751,0.4683,0.4692,0.4996,0.5001,0.5004,0.5013,0,0,0,0,0,0,0.4012,0.4046,0.4087,0.4183,0.4219,0.4378,0.4354,0.4368,0.4421,0.4421,0.4519,0.4533,0.4572,0.4691,0.4715,0.4763,0.4699,0.4992,0.4998,0.5003,0.5009,0.5017,0.5024,0,0,0,0,0,0.4001,0.4083,0.4089,0.4117,0.4272,0.438,0.4401,0.4444,0.4424,0.4467,0.4521,0.453,0.4741,0.4702,0.4729,0.478,0.499,0.4996,0.5003,0.5006,0.5016,0.5024,0,0,0,0,0,0,0.3991,0.4096,0.4104,0.422,0.4291,0.4385,0.444,0.4453,0.4532,0.4528,0.4579,0.4601,0.4709,0.4755,0.4709,0.4891,0.4864,0.4876,0.4857,0.4867,0.4874,0.4862,0.4707,0,0,0,0,0,0.4001,0.408,0.4168,0.4262,0.4297,0.4362,0.4411,0.4438,0.4514,0.4544,0.4606,0.468,0.4763,0.4817,0.4898,0.5015,0.5038,0.5064,0.5071,0.5077,0.5088,0.5154,0.5167,0.5027,0.5027,0.5027,0,0,0.4025,0.4093,0.414,0.4261,0.432,0.4401,0.4387,0.4473,0.4535,0.4558,0.4666,0.4713,0.4799,0.4913,0.4966,0.4955,0.5131,0.5085,0.5089,0.5097,0.5162,0.5175,0.5187,0.5032,0.5031,0.503,0,0,0.4111,0.4169,0.4254,0.4313,0.4401,0.4444,0.4464,0.4556,0.4589,0.4697,0.4716,0.479,0.4932,0.4992,0.5042,0.515,0.5161,0.5175,0.5214,0.5279,0.529,0.53,0.534,0.5354,0.5184,0.5184,0.5184,0,0.413,0.4253,0.4296,0.4382,0.4436,0.4459,0.4546,0.4601,0.4711,0.4748,0.4733,0.4913,0.4972,0.5101,0.5127,0.5166,0.5192,0.5165,0.5284,0.5295,0.5305,0.5344,0.5359,0.5186,0.5186,0.5185,0.5185,0,0.4273,0.4357,0.4415,0.4522,0.4581,0.4667,0.4724,0.4779,0.4801,0.4845,0.4956,0.5027,0.5124,0.5156,0.5178,0.5289,0.528,0.5274,0.5248,0.5319,0.5357,0.5372,0.5187,0.5187,0.5187,0.5186,0,0,0.4358,0.4487,0.4508,0.4556,0.4655,0.4722,0.4809,0.4903,0.495,0.5025,0.5101,0.522,0.5215,0.5271,0.53,0.5356,0.544,0.5344,0.5347,0.5361,0.5568,0.5573,0.559,0.5447,0.545,0.5452,0.5561,0,0.4457,0.4614,0.4655,0.4788,0.4868,0.4891,0.4967,0.5036,0.5079,0.5154,0.5202,0.5286,0.5273,0.5307,0.5364,0.5417,0.5482,0.541,0.5519,0.5522,0.5499,0.5609,0.5615,0.5715,0.5576,0.5579,0.558,0,0.4594,0.4672,0.4813,0.4902,0.4937,0.5005,0.5095,0.5165,0.5244,0.5272,0.5334,0.5358,0.545,0.5417,0.5546,0.5496,0.5543,0.5576,0.5581,0.5595,0.5557,0.5628,0.5747,0.5763,0.5604,0.5602,0.56,0,0.4645,0.4785,0.4888,0.4928,0.5034,0.5082,0.5128,0.5205,0.5259,0.5337,0.5373,0.5461,0.551,0.5577,0.5625,0.5596,0.575,0.5721,0.5777,0.5776,0.5811,0.5808,0.5941,0.5836,0.5836,0.5836,0.5835,0,0.4752,0.4838,0.4912,0.4976,0.5073,0.5119,0.5214,0.5261,0.5329,0.5402,0.5427,0.5495,0.5552,0.5629,0.5666,0.5768,0.5789,0.5815,0.5824,0.5814,0.5811,0.5847,0.5843,0.584,0.5839,0.5838,0.5837,0,0.4827,0.4879,0.4994,0.5085,0.5109,0.5177,0.5255,0.5318,0.5362,0.5455,0.5479,0.5548,0.5639,0.5692,0.5807,0.5832,0.5946,0.5951,0.5919,0.5924,0.5978,0.5973,0.6141,0.6166,0.6042,0.6043,0.6044,0,0.4893,0.496,0.5058,0.5109,0.5156,0.5238,0.5293,0.5341,0.5398,0.5493,0.5544,0.5637,0.5714,0.5858,0.5919,0.6007,0.6016,0.6069,0.603,0.6018,0.602,0.6016,0.6024,0.6076,0.6077,0.6078,0.6079,0,0.5006,0.5029,0.5108,0.5196,0.5261,0.5333,0.5405,0.5445,0.5505,0.5567,0.5661,0.572,0.5837,0.593,0.6023,0.6071,0.6086,0.609,0.6109,0.6101,0.6081,0.6094,0.594,0.6087,0.6086,0.6086,0.6085,0.6085,0.508,0.5141,0.522,0.5307,0.5366,0.5432,0.5496,0.5547,0.5626,0.5726,0.5749,0.5847,0.5925,0.6052,0.6102,0.618,0.6172,0.6197,0.6204,0.621,0.6213,0.6066,0.6197,0.6197,0.6197,0.6197,0.6197,0,0.5196,0.5248,0.5328,0.5427,0.5496,0.5502,0.5581,0.5639,0.5726,0.5796,0.5871,0.5979,0.6069,0.6136,0.6228,0.6277,0.6287,0.63,0.6298,0.631,0.6215,0.6191,0.6291,0.6291,0.6291,0.6291,0.6291,0.6291,0.5265,0.5369,0.5401,0.5534,0.5586,0.5683,0.5728,0.5789,0.5846,0.5966,0.604,0.6083,0.6153,0.625,0.6332,0.635,0.6383,0.6396,0.6415,0.6326,0.6316,0.6306,0.6285,0.6403,0.6403,0.6504,0.6505,0.6505]},{"header":{"parameterUnit":"m.s-1","parameterCategory":1,"la1":30.2991,"la2":30.254,"lo1":-89.0895,"lo2":-89.0444,"dy":0.0017,"dx":0.0017,"nx":28,"ny":28,"refTime":"2024-05-26T21:00:00:Z","depth":0,"parameterNumber":3,"parameterNumberName":"V-component_of_WINDS"},"data":[0,0,0,0,0,0,0,0,0,0,0,0,0,0,0,0,0,0,0,0,0,0,0,0,0,0,0,0,0,0,0,0,0,0,0,0,0,0,0,0,0,0,0,0,0,0,0,0,0,0,0,0,0,0,0,0,0,0,4.843,4.843,0,4.8477,4.8477,4.8478,4.842,4.8417,4.8415,4.8413,4.8456,4.8459,4.8462,0,0,0,0,0,0,0,0,0,0,0,0,0,4.8283,4.8286,4.843,4.8431,4.8431,4.8477,4.8477,4.8478,4.842,4.8417,4.8415,4.8412,4.8455,4.8458,4.8462,0,0,0,0,0,0,0,0,0,0,0,0,0,4.834,4.8287,4.843,4.8408,4.8406,4.8477,4.8477,4.8478,4.842,4.8417,4.8414,4.8411,4.8453,4.8458,4.8463,4.8555,0,0,4.8477,4.8479,0,0,0,0,0,0,0,0,4.8337,4.8346,4.841,4.8409,4.8408,4.8439,4.8441,4.8504,4.8421,4.8415,4.8413,4.841,4.8452,4.8457,4.8473,4.8557,4.8559,4.8477,4.848,4.8482,4.8483,0,0,0,0,0,0,0,4.8333,4.8343,4.8448,4.8411,4.841,4.8393,4.8398,4.8453,4.8451,4.8415,4.8411,4.8418,4.8451,4.8468,4.8473,4.856,4.8477,4.8481,4.8484,4.8486,4.8722,4.8725,0,0,0,0,0,0,4.8333,4.834,4.8447,4.845,4.8364,4.8399,4.8404,4.8432,4.845,4.845,4.842,4.8415,4.8462,4.8468,4.8474,4.8584,4.8482,4.8486,4.8489,4.8718,4.8723,4.8726,0,0,0,0,0,0,4.833,4.8343,4.8445,4.8394,4.8406,4.8405,4.8437,4.8435,4.8452,4.8454,4.8453,4.8439,4.846,4.8468,4.8536,4.8585,4.8488,4.8493,4.8714,4.872,4.8725,4.8805,0,0,0,0,0,0,4.8326,4.8342,4.8379,4.8395,4.8409,4.8508,4.844,4.8438,4.8461,4.8454,4.8471,4.8471,4.8458,4.8529,4.8541,4.859,4.8496,4.871,4.8717,4.8723,4.8798,4.8812,4.8824,0,0,0,0,0,4.8321,4.8398,4.8381,4.8394,4.8455,4.8511,4.8518,4.8503,4.8465,4.8501,4.8502,4.847,4.8578,4.8537,4.8549,4.86,4.8707,4.8715,4.8722,4.8792,4.8809,4.8824,0,0,0,0,0,0,4.8385,4.84,4.8381,4.8467,4.8488,4.8501,4.8546,4.8522,4.8553,4.8545,4.8524,4.8528,4.8601,4.8607,4.8561,4.869,4.8636,4.8646,4.8684,4.8701,4.8714,4.8711,4.85,0,0,0,0,0,4.841,4.8456,4.8465,4.854,4.8552,4.8547,4.8571,4.8558,4.8578,4.8586,4.8592,4.8612,4.865,4.8675,4.871,4.8798,4.88,4.8839,4.8852,4.8863,4.8873,4.8919,4.8936,4.8752,4.8752,4.8752,0,0,4.8461,4.8474,4.8504,4.8553,4.8568,4.8615,4.8555,4.8607,4.864,4.8593,4.8659,4.8664,4.8684,4.8762,4.8797,4.877,4.8924,4.8873,4.8882,4.8885,4.8929,4.8946,4.8962,4.8757,4.8756,4.8756,0,0,4.8577,4.8592,4.8656,4.8673,4.8697,4.8694,4.8709,4.8725,4.8728,4.8793,4.8759,4.8797,4.8863,4.8879,4.8896,4.9018,4.899,4.903,4.9099,4.9145,4.916,4.9172,4.9216,4.9232,4.9039,4.9039,4.9039,0,4.8636,4.8707,4.8691,4.8746,4.8768,4.8729,4.8793,4.8809,4.8843,4.8858,4.8827,4.891,4.892,4.9002,4.9032,4.9046,4.9062,4.9028,4.9159,4.9172,4.9183,4.9225,4.9241,4.9044,4.9044,4.9043,4.9043,0,4.8779,4.8829,4.8877,4.8913,4.894,4.8999,4.899,4.9019,4.9003,4.9002,4.9069,4.908,4.9117,4.9135,4.9119,4.9214,4.9197,4.9163,4.9107,4.9206,4.9245,4.926,4.9051,4.9049,4.9048,4.9047,0,0,4.8939,4.8965,4.8983,4.8999,4.9023,4.906,4.9116,4.9154,4.9179,4.9203,4.9249,4.9306,4.9275,4.9294,4.9279,4.9319,4.9415,4.928,4.928,4.9305,4.952,4.9546,4.9565,4.9396,4.9399,4.9401,4.9519,0,4.9056,4.9156,4.9143,4.9238,4.9283,4.9246,4.9295,4.9313,4.9314,4.935,4.9349,4.939,4.9346,4.9357,4.9395,4.9395,4.9458,4.9386,4.9437,4.9439,4.9435,4.9585,4.9613,4.9724,4.9534,4.9536,4.9538,0,4.9206,4.9238,4.9339,4.9355,4.9373,4.9418,4.9451,4.9487,4.9507,4.9504,4.9526,4.9504,4.9558,4.9501,4.9575,4.9527,4.9546,4.955,4.9553,4.9558,4.9495,4.9594,4.9758,4.9775,4.9562,4.956,4.9558,0,4.9313,4.9381,4.945,4.9464,4.9485,4.9517,4.9527,4.9544,4.9567,4.9596,4.961,4.9644,4.9663,4.9688,4.9675,4.9635,4.9752,4.9694,4.975,4.9751,4.9777,4.9776,4.9947,4.9789,4.9788,4.9788,4.9788,0,4.9446,4.9509,4.9498,4.9541,4.9609,4.9593,4.966,4.9665,4.968,4.9722,4.969,4.9729,4.971,4.9747,4.9736,4.9799,4.9807,4.9806,4.9803,4.9809,4.981,4.9822,4.9815,4.9792,4.9791,4.979,4.979,0,4.9578,4.9574,4.9646,4.9661,4.9665,4.9716,4.9727,4.9765,4.9763,4.9815,4.9827,4.9822,4.9864,4.9854,4.9899,4.9892,4.9971,4.9958,4.9966,4.9963,5.002,5.0015,5.0206,5.023,5.0056,5.0057,5.0059,0,4.9664,4.9712,4.9732,4.9758,4.9771,4.9814,4.9838,4.9822,4.9848,4.9874,4.991,4.9949,4.998,5.0049,5.0048,5.0083,5.007,5.0134,5.0075,5.008,5.0072,5.0069,5.0074,5.0147,5.0149,5.015,5.0152,0,4.9817,4.9812,4.985,4.9886,4.9917,4.9944,4.9969,4.9991,4.9977,5.0008,5.0052,5.0076,5.0122,5.0162,5.0193,5.0201,5.0174,5.017,5.0185,5.0193,5.0196,5.0196,4.9999,5.0166,5.0165,5.0164,5.0163,5.0162,4.9928,4.9969,4.999,5.0032,5.0049,5.0073,5.011,5.0113,5.015,5.0188,5.0175,5.0225,5.0242,5.0282,5.0294,5.0331,5.0306,5.0328,5.0333,5.0339,5.0347,5.019,5.0336,5.0336,5.0335,5.0335,5.0335,0,5.008,5.0092,5.0131,5.0167,5.02,5.0173,5.0198,5.0227,5.0272,5.0291,5.0323,5.0372,5.041,5.0413,5.0448,5.0478,5.0466,5.0487,5.0485,5.0488,5.0366,5.035,5.0496,5.0496,5.0496,5.0496,5.0496,5.0496,5.0163,5.0231,5.0229,5.0304,5.0314,5.0364,5.0381,5.0402,5.0417,5.0475,5.0507,5.0509,5.0521,5.0557,5.059,5.0589,5.0604,5.063,5.0625,5.0512,5.0496,5.0481,5.0466,5.0633,5.0634,5.0743,5.0744,5.0745]}]]